COSMOS 1275 DEB

Satellite information

Favourite Embed

Satellite Type and Status

DEBRISIN ORBIT

Key statistics

Satellite COSMOS 1275 DEB at a glance.

Uptime

16214

Days in orbit

Revolutions

≈ 14.2

Per day

Orbit

LEO

Low Earth Orbit

Inclination

82.8

Latest

Satellite identification and parameters

Extended collection of information and parameters for COSMOS 1275 DEB.

Object identification

Identified? True

Debris? True

Object name: COSMOS 1275 DEB

International designator: 1981-053MF

Object number (NORAD): 19047

Object ID (CCSDS): 19047

Country: COMMONWEALTH OF INDEPENDENT STATES (CIS)

Current information (Y/N): Y

RCS size: SMALL

Orbital parameters

Period: 101.308 minutes

Inclination: 82.7788 deg

SMA: 7198.751 km

Apoapsis: 840.917 km

Periapsis: 800.315 km

RAAN: 111.5892 deg

Eccentricy: 0.00282003

Argument of periapsis: 253.4541 deg

Mean anomaly: 259.1073 deg

Mean motion: 14.21402338 rev/day

Mean motion (dot): 0.00005571 rev/day2

B* drag term: 0.0025334575 1/REarth

Two-line elements (TLE)

Creation date: Oct. 25, 2025, 3:11 a.m.

Reference frame: TEME

Reference center: EARTH

Epoch: Oct. 24, 2025, 10:23 p.m. UTC

TLE line 0: 0 COSMOS 1275 DEB

TLE line 1: 1 19047U 81053MF 25297.93269116 .00005571 00000-0 25335-2 0 9998

TLE line 2: 2 19047 82.7788 111.5892 0028200 253.4541 259.1073 14.21402338 71009

Live tracking on map

Real-time ground track for satellite COSMOS 1275 DEB.

In-orbit conjunctions

A list of the most updated potential collisions computed for object COSMOS 1275 DEB.

Target Orbit TCA Probability of collision Miss distance Type
NOAA 16 DEB SSO 2025-09-06 08:58:11 0.0001280078 59.0 (m) DEBRIS
FENGYUN 1C DEB SSO 2025-05-18 15:02:08 0.0001807599 155.0 (m) DEBRIS
COSMOS 1275 DEB LEO 2024-09-05 18:01:06 0.0001256909 29.0 (m) DEBRIS
FENGYUN 1C DEB SSO 2024-09-01 12:32:45 0.0001041698 112.0 (m) DEBRIS

Associated space launch

Navigation satellite providing location information for the Tsiklon-B navigation system

COSMOS 1275 DEB was lifted into orbit during the mission ‘Kosmos-3M | Parus 27’, on board a Kosmos-3M space rocket.

The launch took place on June 4, 1981, 3:41 p.m. from 132/2.

For more information about the launch, click the button.

Launch to space Kosmos-3M | Parus 27
Kosmos-3M | Parus 27

Agency: N/A

Status: Launch Successful

Launch date: June 4, 1981, 3:41 p.m. UTC

Rocket: Kosmos-3M

Launch pad: 132/2

Location: Plesetsk Cosmodrome, Russian Federation

...

Latest news about this satellite

There are no fresh news available about this satellite. Check back as we update our databases every day.


Newsletter sign-up

Weekly statistics, charts and insights to help you stay on top of the space industry.